M.P.E.C. 2017-Q161 Issued 2017 Aug. 31, 00:32 UT The Minor Planet Electronic Circulars contain information on unusual minor planets and routine data on comets. They are published on behalf of Division F of the International Astronomical Union by the Minor Planet Center, Smithsonian Astrophysical Observatory, Cambridge, MA 02138, U.S.A. Prepared using the Tamkin Foundation Computer Network MPC@CFA.HARVARD.EDU URL https://www.minorplanetcenter.net/ ISSN 1523-6714 2017 QO33 Observations: K17Q33O C2016 08 04.53665 00 15 24.964+02 38 48.42 22.7 wLEQ161F51 K17Q33O C2016 08 04.57284 00 15 23.562+02 38 44.76 22.8 wLEQ161F51 K17Q33O C2016 08 14.56509 00 08 25.460+02 20 24.89 22.9 wLEQ161F51 K17Q33O C2016 08 14.57724 00 08 24.906+02 20 23.23 23.0 wLEQ161F51 K17Q33O C2016 08 14.58940 00 08 24.352+02 20 22.00 22.1 wLEQ161F51 K17Q33O C2016 08 14.60153 00 08 23.806+02 20 20.29 22.6 wLEQ161F51 K17Q33O C2017 06 10.56319 22 49 08.396+07 28 58.31 21.5 iLEQ161F51 K17Q33O C2017 06 10.57416 22 49 08.067+07 29 00.74 21.4 iLEQ161F51 K17Q33O C2017 06 10.58643 22 49 07.734+07 29 02.92 21.8 iLEQ161F51 K17Q33O C2017 06 10.59808 22 49 07.380+07 29 05.13 21.4 iLEQ161F51 K17Q33O C2017 06 25.59071 22 40 16.130+08 10 47.22 22.5 wLEQ161F51 K17Q33O C2017 06 25.59633 22 40 15.889+08 10 47.84 22.5 wLEQ161F51 K17Q33O C2017 06 25.60197 22 40 15.633+08 10 48.64 22.1 wLEQ161F51 K17Q33O C2017 07 26.50199 22 10 28.503+08 38 56.22 21.6 wLEQ161F51 K17Q33O C2017 07 26.51471 22 10 27.582+08 38 55.75 21.5 wLEQ161F51 K17Q33O* C2017 08 16.48882 21 43 14.566+07 58 38.58 20.9 iLEQ161F51 K17Q33O C2017 08 16.50083 21 43 13.542+07 58 36.21 21.0 iLEQ161F51 K17Q33O C2017 08 16.51287 21 43 12.572+07 58 33.88 20.9 iLEQ161F51 K17Q33O KC2017 08 17.16780 21 42 19.05 +07 56 30.5 oEQ161291 K17Q33O KC2017 08 17.17358 21 42 18.65 +07 56 28.7 oEQ161291 K17Q33O KC2017 08 17.17935 21 42 18.16 +07 56 28.0 oEQ161291 K17Q33O 1C2017 08 17.26727 21 42 10.89 +07 56 11.2 EQ161658 K17Q33O 1C2017 08 17.27052 21 42 10.64 +07 56 10.5 EQ161658 K17Q33O 1C2017 08 17.27377 21 42 10.37 +07 56 09.9 EQ161658 K17Q33O _C2017 08 17.36739921 42 02.735+07 55 52.16 20.8 GUEQ161568 K17Q33O _C2017 08 17.36857521 42 02.635+07 55 51.92 20.7 GUEQ161568 K17Q33O _C2017 08 17.36953421 42 02.557+07 55 51.72 20.7 GUEQ161568 K17Q33O 1C2017 08 18.25892 21 40 49.75 +07 52 58.2 EQ161658 K17Q33O 1C2017 08 18.26109 21 40 49.46 +07 52 56.7 EQ161658 K17Q33O 1C2017 08 18.26434 21 40 49.18 +07 52 56.2 EQ161658 K17Q33O KC2017 08 18.28924 21 40 47.13 +07 52 51.8 oEQ161691 K17Q33O KC2017 08 18.29620 21 40 46.53 +07 52 50.7 oEQ161691 K17Q33O 1C2017 08 21.25462 21 36 43.73 +07 42 38.8 EQ161658 K17Q33O 1C2017 08 21.25678 21 36 43.58 +07 42 38.2 EQ161658 K17Q33O 1C2017 08 21.25896 21 36 43.37 +07 42 37.7 EQ161658 K17Q33O C2017 08 21.84597 21 35 55.29 +07 40 29.7 20.2 VSEQ161033 K17Q33O C2017 08 21.84988 21 35 55.00 +07 40 28.5 20.3 VSEQ161033 K17Q33O C2017 08 21.85381 21 35 54.64 +07 40 27.4 19.8 VSEQ161033 K17Q33O C2017 08 21.85772 21 35 54.32 +07 40 26.8 19.5 VSEQ161033 K17Q33O C2017 08 21.86164 21 35 53.99 +07 40 25.9 19.8 VSEQ161033 K17Q33O C2017 08 21.93429 21 35 48.01 +07 40 09.9 19.6 VSEQ161033 K17Q33O C2017 08 21.93740 21 35 47.74 +07 40 09.2 19.7 VSEQ161033 K17Q33O C2017 08 21.94051 21 35 47.48 +07 40 08.3 19.7 VSEQ161033 K17Q33O C2017 08 21.94361 21 35 47.25 +07 40 07.9 19.0 VSEQ161033 K17Q33O C2017 08 21.94672 21 35 46.98 +07 40 07.4 19.4 VSEQ161033 K17Q33O 1C2017 08 22.24662 21 35 22.43 +07 39 01.8 EQ161658 K17Q33O 1C2017 08 22.24878 21 35 22.25 +07 39 01.3 EQ161658 K17Q33O 1C2017 08 22.25096 21 35 22.06 +07 39 00.9 EQ161658 K17Q33O C2017 08 22.82398 21 34 35.08 +07 36 52.3 20.1 VSEQ161033 K17Q33O C2017 08 22.82627 21 34 34.91 +07 36 51.8 20.4 VSEQ161033 K17Q33O C2017 08 22.87388 21 34 30.99 +07 36 40.9 20.3 VSEQ161033 K17Q33O KC2017 08 22.88220 21 34 30.35 +07 36 40.2 20.5 RUEQ161587 K17Q33O KC2017 08 22.88647 21 34 29.95 +07 36 38.8 UEQ161587 K17Q33O C2017 08 22.95752 21 34 24.05 +07 36 22.5 20.7 VSEQ161033 K17Q33O C2017 08 22.95983 21 34 23.89 +07 36 21.5 20.7 VSEQ161033 K17Q33O KC2017 08 23.02676 21 34 18.51 +07 36 09.4 21.0 RqEQ161W96 K17Q33O KC2017 08 23.05259 21 34 16.40 +07 36 03.3 21.3 RqEQ161W96 K17Q33O KC2017 08 23.07842 21 34 14.31 +07 35 57.5 21.0 RqEQ161W96 K17Q33O 2C2017 08 23.34657 21 33 52.23 +07 34 54.7 20.2 VtEQ161F65 K17Q33O 2C2017 08 23.35440 21 33 51.58 +07 34 52.9 20.2 VtEQ161F65 K17Q33O 2C2017 08 23.36709 21 33 50.54 +07 34 51.0 20.3 VtEQ161F65 K17Q33O C2017 08 23.82571 21 33 13.00 +07 33 04.3 19.9 VSEQ161033 K17Q33O C2017 08 23.82927 21 33 12.71 +07 33 03.1 19.9 VSEQ161033 K17Q33O C2017 08 23.83285 21 33 12.42 +07 33 02.1 19.8 VSEQ161033 K17Q33O KC2017 08 23.84997 21 33 10.87 +07 32 59.4 20.7 VqEQ161A71 K17Q33O KC2017 08 23.87514 21 33 08.91 +07 32 53.2 21.5 VqEQ161A71 K17Q33O 9C2017 08 25.11214 21 31 27.62 +07 28 03.6 UEQ161G40 K17Q33O 9C2017 08 25.12915 21 31 26.29 +07 28 00.3 20.5 VUEQ161G40 K17Q33O KC2017 08 25.23308021 31 17.85 +07 27 35.6 20.8 VuEQ161H21 K17Q33O KC2017 08 25.24262721 31 17.04 +07 27 33.2 21.1 VuEQ161H21 K17Q33O KC2017 08 25.25440621 31 16.10 +07 27 30.1 20.8 VuEQ161H21 K17Q33O _C2017 08 25.36930821 31 06.717+07 27 03.21 20.8 GUEQ161568 K17Q33O _C2017 08 25.37119121 31 06.564+07 27 02.77 20.9 GUEQ161568 K17Q33O _C2017 08 25.37306821 31 06.409+07 27 02.32 20.9 GUEQ161568 K17Q33O C2017 08 26.93216 21 28 59.32 +07 20 43.3 20.6 VSEQ161033 K17Q33O C2017 08 26.93492 21 28 59.11 +07 20 42.6 20.5 VSEQ161033 K17Q33O C2017 08 26.93769 21 28 58.87 +07 20 41.6 20.6 VSEQ161033 K17Q33O KC2017 08 27.19727 21 28 37.81 +07 19 38.5 20.3 RqEQ161H36 K17Q33O KC2017 08 27.22061 21 28 35.82 +07 19 32.4 20.5 RqEQ161H36 K17Q33O C2017 08 27.82581 21 27 46.77 +07 17 00.5 21.0 VSEQ161033 K17Q33O C2017 08 27.82891 21 27 46.53 +07 17 00.0 20.7 VSEQ161033 K17Q33O C2017 08 27.83203 21 27 46.27 +07 16 59.0 20.7 VSEQ161033 K17Q33O KC2017 08 27.85661 21 27 44.28 +07 16 52.9 20.5 QEQ161104 K17Q33O KC2017 08 27.86142 21 27 43.90 +07 16 51.6 20.6 QEQ161104 K17Q33O KC2017 08 27.86587 21 27 43.51 +07 16 50.4 QEQ161104 K17Q33O C2017 08 27.90133 21 27 40.60 +07 16 41.9 20.4 VSEQ161033 K17Q33O C2017 08 27.90362 21 27 40.43 +07 16 41.4 20.4 VSEQ161033 K17Q33O C2017 08 27.90593 21 27 40.25 +07 16 40.7 20.7 VSEQ161033 K17Q33O C2017 08 27.90822 21 27 40.07 +07 16 40.0 20.0 VSEQ161033 K17Q33O C2017 08 27.91052 21 27 39.88 +07 16 39.9 21.0 VSEQ161033 K17Q33O KC2017 08 28.19702 21 27 16.65 +07 15 27.7 20.6 RqEQ161734 K17Q33O KC2017 08 28.20494 21 27 16.02 +07 15 25.7 20.2 RqEQ161734 K17Q33O KC2017 08 28.21290 21 27 15.34 +07 15 23.8 20.7 RqEQ161734 K17Q33O C2017 08 28.82934 21 26 25.55 +07 12 46.7 21.0 VSEQ161033 K17Q33O C2017 08 28.83163 21 26 25.36 +07 12 45.5 20.6 VSEQ161033 K17Q33O C2017 08 28.83394 21 26 25.16 +07 12 45.1 20.5 VSEQ161033 K17Q33O C2017 08 28.83624 21 26 24.94 +07 12 44.2 20.8 VSEQ161033 K17Q33O C2017 08 28.89039 21 26 20.56 +07 12 30.7 20.1 VSEQ161033 K17Q33O C2017 08 28.89270 21 26 20.37 +07 12 30.5 20.5 VSEQ161033 K17Q33O C2017 08 28.89499 21 26 20.18 +07 12 29.8 20.5 VSEQ161033 K17Q33O C2017 08 28.89729 21 26 20.00 +07 12 29.1 20.6 VSEQ161033 K17Q33O KC2017 08 30.19567421 24 35.31 +07 06 53.4 20.8 VuEQ161H21 K17Q33O KC2017 08 30.20146321 24 34.85 +07 06 51.7 21.0 VuEQ161H21 K17Q33O KC2017 08 30.21202821 24 33.97 +07 06 48.6 21.4 VuEQ161H21 K17Q33O KC2017 08 30.22962 21 24 32.58 +07 06 44.5 20.4 RqEQ161734 K17Q33O KC2017 08 30.24227 21 24 31.56 +07 06 40.9 20.3 RqEQ161734 K17Q33O KC2017 08 30.25333 21 24 30.71 +07 06 37.9 20.6 RqEQ161734 K17Q33O KC2017 08 30.26586 21 24 29.63 +07 06 35.7 20.8 RoEQ161691 K17Q33O KC2017 08 30.28001 21 24 28.49 +07 06 31.3 21.1 RoEQ161691 K17Q33O KC2017 08 30.29411 21 24 27.36 +07 06 27.3 21.2 RoEQ161691 Observer details: 033 Karl Schwarzschild Observatory, Tautenburg. Observers B. Stecklum, C. Hoegner. Measurer B. Stecklum. 1.34-m f/3 Schmidt + CCD. 104 San Marcello Pistoiese. Observers P. Bacci, M. Maestripieri. Measurers P. Bacci, L. Tesi, G. Fagioli. 0.60-m f/4 reflector + CCD. 291 LPL/Spacewatch II. Observer M. J. Brucker. 1.8-m f/2.7 reflector + CCD. 568 Mauna Kea. Observers R. J. Wainscoat, C. Crowder, K. J. Meech, J. Kleyna. Measurers M. Micheli, R. J. Wainscoat, J. Kleyna. 3.6-m Canada-France-Hawaii Telescope + CCD. 587 Sormano. Observers A. Fumagalli, P. Sicoli, A. Testa. Measurer P. Sicoli. 0.5-m f/6.8 reflector + CCD. 658 National Research Council of Canada. Observer D. D. Balam. 1.82-m Plaskett telescope + CCD. 691 Steward Observatory, Kitt Peak. Observers T. H. Bressi, R. A. Mastaler. 0.9-m f/3 reflector + CCD. 734 Farpoint Observatory. Observer G. Hug. 0.69-m reflector + CCD. A71 Stixendorf. Observers M. Jaeger, E. Prosperi, S. Prosperi, W. Vollmann. Measurer M. Jaeger. 0.3-m f/4 reflector + CCD. F51 Pan-STARRS 1, Haleakala. Observers J. Bulger, T. Lowe, A. Schultz, M. Willman, T. Goggia. Measurers K. Chambers, S. Chastel, L. Denneau, H. Flewelling, M. Huber, E. Lilly, E. Magnier, R. Wainscoat, C. Waters, R. Weryk. 1.8-m Ritchey-Chretien + CCD. F65 Haleakala-Faulkes Telescope North. Observer P. Breitenstein. 2.0-m Ritchey-Chretien + CCD. G40 Slooh.com Canary Islands Observatory. Observer B. Lutkenhoner. 0.5-m f/6.8 Corrected Dall-Kirkham + CCD. H21 Astronomical Research Observatory, Westfield. Observer R. Holmes. Measurers S. Foglia, L. Buzzi, T. Linder, R. Holmes. 0.76-m f/3.0 astrograph + CCD, 0.81-m f/4.0 astrograph + CCD. H36 Sandlot Observatory, Scranton. Observer G. Hug. 0.56-m reflector + CCD. W96 CAO, San Pedro de Atacama (since 2013). Observers A. Maury, J.-B. de Vanssay, J.-F. Soulier. Measurer J.-F. Soulier. 0.4-m f/5.4 Ritchey-Chretien + CCD. Orbital elements: 2017 QO33 Epoch 2017 Sept. 4.0 TT = JDT 2458000.5 MPC M 358.72221 (2000.0) P Q n 0.00483606 Peri. 66.49144 +0.38603649 -0.92244489 a 34.6317756 Node 359.06551 -0.91453878 -0.38149743 e 0.8575954 Incl. 148.82987 +0.12080833 +0.05962504 P 204 H 13.8 G 0.15 U 1 Residuals in seconds of arc 160804 F51 0.2- 0.1+ 170821 033 0.1- 0.3- 170826 033 0.1+ 0.1+ 160804 F51 0.0 0.2- 170821 033 0.1- 0.1- 170826 033 0.4+ 0.1+ 160814 F51 0.0 0.1- 170821 033 0.2- 0.1- 170826 033 0.2+ 0.2- 160814 F51 0.0 0.1- 170821 033 0.1+ 0.2- 170827 H36 0.5+ 0.5+ 160814 F51 0.0 0.2+ 170821 033 0.1- 0.2- 170827 H36 0.7- 0.2+ 160814 F51 0.2+ 0.0 170821 033 0.1- 0.4- 170827 033 0.1- 0.3- 170610 F51 0.1+ 0.1- 170821 033 0.2+ 0.2- 170827 033 0.1+ 0.1- 170610 F51 0.1- 0.2+ 170821 033 0.0 0.0 170827 033 0.0 0.3- 170610 F51 0.2+ 0.0 170822 658 0.3+ 0.5+ 170827 104 0.1+ 0.4- 170610 F51 0.0 0.0 170822 658 0.3+ 0.5+ 170827 104 0.3+ 0.5- 170625 F51 0.1+ 0.2+ 170822 658 0.1+ 0.6+ 170827 104 0.1- 0.6- 170625 F51 0.1+ 0.0 170822 033 0.1+ 0.0 170827 033 0.2- 0.0 170625 F51 0.1- 0.0 170822 033 0.3+ 0.0 170827 033 0.0 0.1+ 170726 F51 0.1- 0.0 170822 033 0.4+ 0.2- 170827 033 0.2+ 0.0 170726 F51 0.1- 0.1+ 170822 587 1.0+ 0.8+ 170827 033 0.3+ 0.2- 170816 F51 0.2+ 0.0 170822 587 0.3+ 0.4+ 170827 033 0.2+ 0.3+ 170816 F51 0.3- 0.1- 170822 033 0.2- 0.2+ 170828 734 0.0 0.0 170816 F51 0.1+ 0.2- 170822 033 0.3+ 0.3- 170828 734 0.2+ 0.0 170817 291 1.0- 0.5+ 170823 W96 0.3+ 0.4+ 170828 734 0.2- 0.1+ 170817 291 0.1+ 0.2- 170823 W96 0.6+ 0.1+ 170828 033 0.5+ 0.1+ 170817 291 0.1- 0.2+ 170823 W96 1.3+ 0.1+ 170828 033 0.5+ 0.5- 170817 658 0.5- 0.6+ 170823 F65 0.0 0.4- 170828 033 0.3+ 0.3- 170817 658 0.2- 0.5+ 170823 F65 0.0 0.4- 170828 033 0.2- 0.6- 170817 658 0.3- 0.5+ 170823 F65 0.1+ 0.6+ 170828 033 0.1+ 0.3- 170817 568 0.0 0.1- 170823 033 0.2+ 0.1- 170828 033 0.1+ 0.1+ 170817 568 0.0 0.1- 170823 033 0.2+ 0.5- 170828 033 0.0 0.0 170817 568 0.0 0.2- 170823 033 0.3+ 0.6- 170828 033 0.2+ 0.1- 170818 658 1.3+ 0.5+ 170823 A71 (1.7- 0.5+) 170830 H21 0.2- 0.2+ 170818 658 0.4- 0.5- 170823 A71 0.0 0.1+ 170830 H21 0.1- 0.0 170818 658 0.5- 0.4- 170825 G40 0.1- 0.6- 170830 H21 0.4- 0.3- 170818 691 0.2- 0.4- 170825 G40 0.9+ 0.1+ 170830 734 0.1- 0.2+ 170818 691 0.6- 0.1- 170825 H21 0.7+ 0.4+ 170830 734 0.1- 0.1- 170821 658 1.3- 0.6+ 170825 H21 0.3+ 0.3+ 170830 734 0.6+ 0.2- 170821 658 0.9- 0.5+ 170825 H21 0.8+ 0.0 170830 691 0.8- 0.7+ 170821 658 1.3- 0.5+ 170825 568 0.0 0.2- 170830 691 0.7- 0.0 170821 033 0.1- 0.2+ 170825 568 0.0 0.2- 170830 691 0.5- 0.3- 170821 033 0.4+ 0.1- 170825 568 0.0 0.2- Ephemeris: 2017 QO33 a,e,i = 34.63, 0.86, 149 q = 4.9317 Date TT R. A. (2000) Decl. Delta r Elong. Phase V 2017 08 01 22 03 43.0 +08 33 20 4.4890 5.3685 147.0 5.9 21.2 ... 2017 08 16 21 43 54.6 +08 00 10 4.3745 5.3278 158.2 4.1 21.0 ... 2017 08 24 21 32 58.7 +07 32 26 4.3507 5.3069 159.0 3.9 21.0 ... 2017 08 30 21 24 51.1 +07 07 46 4.3504 5.2914 156.5 4.4 21.0 2017 08 31 21 23 30.8 +07 03 22 4.3518 5.2889 155.8 4.5 21.0 2017 09 01 21 22 10.9 +06 58 55 4.3536 5.2864 155.1 4.6 21.0 ... 2017 09 07 21 14 21.2 +06 30 50 4.3727 5.2713 150.2 5.4 21.1 ... 2017 09 15 21 04 28.6 +05 50 46 4.4196 5.2517 142.3 6.7 21.1 ... 2017 09 30 20 48 22.0 +04 32 52 4.5650 5.2163 125.9 8.9 21.3 A. U. Tomatic (C) Copyright 2017 MPC M.P.E.C. 2017-Q161
